Location: Pcim
(49.7500°N, 19.9670°E)
Time: 05:41:23
(UTC+02:00)

PRISM - Visible Passes

Search period start: 16 April 2024 00:00
Search period end: 26 April 2024 00:00
Orbit: 508 x 528 km, 98.2° (Epoch: 15 April)

Date Brightness Start Highest point End Pass type
(mag) Time Alt. Az. Time Alt. Az. Time Alt. Az.
16 Apr ? 21:36:21 10° WSW 21:38:15 13° W 21:40:09 10° WNW visible
17 Apr ? 21:21:19 10° SW 21:24:02 19° W 21:26:44 10° NW visible
18 Apr ? 21:06:36 10° SSW 21:09:47 26° W 21:12:59 10° NW visible
19 Apr ? 20:52:02 10° SSW 20:55:31 37° W 20:59:02 10° NNW visible
20 Apr ? 20:37:34 10° S 20:41:14 54° WSW 20:44:55 10° NNW visible
21 Apr ? 20:23:12 10° SSE 20:26:57 80° WSW 20:30:42 10° NNW visible
22 Apr ? 21:45:50 10° WSW 21:47:06 11° W 21:48:21 10° WNW visible
23 Apr ? 21:30:10 10° SW 21:32:33 16° W 21:34:57 10° NW visible
24 Apr ? 21:15:01 10° SSW 21:18:01 23° W 21:21:01 10° NW visible
25 Apr ? 21:00:04 10° SSW 21:03:26 32° W 21:06:50 10° NNW visible
